Location: Unspecified
(0.0000°N, 0.0000°E)
Time: 23:22:33
(UTC+00:00)

S-56A Canister/Altair - Pass Details

Date: 03 October 2020
Orbit: 633 x 2499 km, 38.9° (Epoch: 28 October)

Event Time Altitude Azimuth Distance (km) Brightness Sun altitude
Rises 08:11:31 0° 209° (SSW) 3,968 11.0 35.5°
Reaches altitude 10° 08:14:09 10° 200° (SSW) 3,234 10.7 36.2°
Maximum altitude 08:21:49 38° 134° (SE) 2,313 11.2 38.1°
Drops below altitude 10° 08:32:44 10° 71° (ENE) 4,615 12.5 40.8°
Sets 08:37:16 0° 64° (ENE) 5,846 12.7 41.9°
